Blattenbach Aussen Messungen

Zurück zum Überblick

Zeitpunkt Temperatur Temperatur Kabelsensor Luftfeuchte
22.05.2019 15:56:34 19,0 C 12,0 C 60,0%
22.05.2019 15:49:34 18,8 C 12,0 C 60,0%
22.05.2019 15:42:35 18,7 C 11,9 C 59,0%
22.05.2019 15:35:36 18,6 C 11,9 C 59,0%
22.05.2019 15:28:32 18,8 C 11,9 C 60,0%
22.05.2019 15:21:34 19,2 C 11,8 C 60,0%
22.05.2019 15:14:33 19,2 C 11,8 C 62,0%
22.05.2019 15:07:19 18,7 C 11,7 C 63,0%
22.05.2019 15:00:20 18,4 C 11,7 C 63,0%
22.05.2019 14:53:18 18,1 C 11,6 C 63,0%
22.05.2019 14:46:20 18,2 C 11,6 C 63,0%
22.05.2019 14:39:21 18,1 C 11,6 C 64,0%
22.05.2019 14:32:21 18,0 C 11,5 C 64,0%
22.05.2019 14:25:21 17,8 C 11,5 C 65,0%
22.05.2019 14:18:18 17,6 C 11,5 C 65,0%
22.05.2019 14:11:18 17,6 C 11,3 C 64,0%
22.05.2019 14:04:20 17,5 C 11,3 C 64,0%
22.05.2019 13:57:19 17,6 C 11,3 C 64,0%
22.05.2019 13:50:20 17,9 C 11,3 C 64,0%
22.05.2019 13:43:20 17,9 C 11,2 C 63,0%
22.05.2019 13:36:20 18,0 C 11,2 C 63,0%
22.05.2019 13:29:18 17,4 C 11,1 C 65,0%
22.05.2019 13:22:19 17,0 C 11,1 C 66,0%
22.05.2019 13:15:21 16,8 C 11,1 C 66,0%
22.05.2019 13:08:19 16,9 C 11,0 C 66,0%
22.05.2019 13:01:18 17,5 C 11,0 C 65,0%
22.05.2019 12:54:18 17,8 C 11,0 C 66,0%
22.05.2019 12:47:18 17,9 C 11,0 C 66,0%
22.05.2019 12:40:20 17,6 C 10,9 C 68,0%
22.05.2019 12:33:21 17,4 C 10,9 C 68,0%
22.05.2019 12:26:18 17,5 C 10,9 C 69,0%
22.05.2019 12:19:19 17,4 C 10,8 C 70,0%
22.05.2019 12:12:20 17,2 C 10,8 C 70,0%
22.05.2019 12:05:17 17,0 C 10,8 C 71,0%
22.05.2019 11:58:20 16,8 C 10,7 C 72,0%
22.05.2019 11:51:19 16,8 C 10,7 C 72,0%
22.05.2019 11:44:18 16,8 C 10,7 C 74,0%
22.05.2019 11:37:19 16,6 C 10,7 C 74,0%
22.05.2019 11:30:20 16,2 C 10,6 C 76,0%
22.05.2019 11:23:19 15,8 C 10,6 C 77,0%
22.05.2019 11:16:19 15,8 C 10,6 C 77,0%
22.05.2019 11:09:18 15,9 C 10,5 C 78,0%
22.05.2019 11:02:20 15,4 C 10,5 C 80,0%
22.05.2019 10:55:18 15,2 C 10,5 C 81,0%
22.05.2019 10:48:17 15,3 C 10,5 C 81,0%
22.05.2019 10:41:17 14,8 C 10,5 C 82,0%
22.05.2019 10:34:19 14,2 C 10,5 C 83,0%
22.05.2019 10:27:18 13,7 C 10,5 C 83,0%
22.05.2019 10:20:20 13,3 C 10,5 C 85,0%
22.05.2019 10:13:17 12,9 C 10,5 C 86,0%
22.05.2019 10:06:18 12,5 C 10,5 C 87,0%
22.05.2019 09:59:19 12,1 C 10,5 C 87,0%
22.05.2019 09:52:19 11,8 C 10,5 C 87,0%
22.05.2019 09:45:16 11,7 C 10,5 C 87,0%
22.05.2019 09:38:17 11,5 C 10,5 C 88,0%
22.05.2019 09:31:18 11,3 C 10,5 C 88,0%
22.05.2019 09:24:01 11,1 C 10,5 C 88,0%
22.05.2019 09:17:00 11,1 C 10,5 C 88,0%
22.05.2019 09:10:04 11,1 C 10,5 C 88,0%
22.05.2019 09:03:01 11,0 C 10,5 C 88,0%
22.05.2019 08:56:04 11,0 C 10,5 C 88,0%
22.05.2019 08:49:03 11,0 C 10,5 C 88,0%
22.05.2019 08:42:00 10,9 C 10,5 C 88,0%
22.05.2019 08:35:03 10,9 C 10,5 C 88,0%
22.05.2019 08:28:02 10,8 C 10,5 C 88,0%
22.05.2019 08:21:04 10,7 C 10,5 C 88,0%
22.05.2019 08:14:03 10,7 C 10,5 C 88,0%
22.05.2019 08:07:02 10,7 C 10,5 C 88,0%
22.05.2019 08:00:01 10,8 C 10,5 C 87,0%
22.05.2019 07:53:05 10,8 C 10,5 C 88,0%
22.05.2019 07:46:02 10,7 C 10,5 C 88,0%
22.05.2019 07:39:04 10,7 C 10,5 C 87,0%
22.05.2019 07:32:04 10,7 C 10,5 C 87,0%
22.05.2019 07:25:03 10,7 C 10,5 C 87,0%
22.05.2019 07:18:04 10,6 C 10,5 C 88,0%
22.05.2019 07:11:02 10,6 C 10,5 C 88,0%
22.05.2019 07:04:02 10,6 C 10,5 C 88,0%
22.05.2019 06:57:03 10,7 C 10,5 C 88,0%
22.05.2019 06:50:02 10,6 C 10,5 C 88,0%
22.05.2019 06:43:00 10,6 C 10,5 C 88,0%
22.05.2019 06:36:00 10,6 C 10,5 C 88,0%
22.05.2019 06:29:01 10,6 C 10,6 C 88,0%
22.05.2019 06:22:04 10,6 C 10,6 C 88,0%
22.05.2019 06:15:04 10,7 C 10,6 C 88,0%
22.05.2019 06:08:03 10,8 C 10,6 C 89,0%
22.05.2019 06:01:02 10,8 C 10,6 C 89,0%
22.05.2019 05:54:01 10,8 C 10,6 C 88,0%
22.05.2019 05:47:04 10,9 C 10,6 C 89,0%
22.05.2019 05:40:01 11,1 C 10,6 C 88,0%
22.05.2019 05:33:03 11,3 C 10,6 C 89,0%
22.05.2019 05:26:01 11,3 C 10,6 C 89,0%
22.05.2019 05:19:02 11,3 C 10,6 C 89,0%
22.05.2019 05:12:04 11,4 C 10,6 C 89,0%
22.05.2019 05:05:04 11,4 C 10,6 C 89,0%
22.05.2019 04:58:03 11,4 C 10,6 C 89,0%
22.05.2019 04:51:03 11,4 C 10,6 C 89,0%
22.05.2019 04:44:02 11,5 C 10,6 C 89,0%
22.05.2019 04:37:03 11,4 C 10,6 C 89,0%
22.05.2019 04:29:45 11,4 C 10,6 C 89,0%
22.05.2019 04:22:49 11,4 C 10,6 C 89,0%
22.05.2019 04:15:47 11,4 C 10,6 C 89,0%
22.05.2019 04:08:48 11,4 C 10,6 C 89,0%
22.05.2019 04:01:48 11,3 C 10,6 C 89,0%
22.05.2019 03:54:46 11,4 C 10,6 C 89,0%
22.05.2019 03:47:47 11,3 C 10,6 C 89,0%
22.05.2019 03:40:46 11,3 C 10,6 C 89,0%
22.05.2019 03:33:47 11,3 C 10,6 C 89,0%
22.05.2019 03:26:46 11,3 C 10,6 C 89,0%
22.05.2019 03:19:49 11,4 C 10,6 C 89,0%
22.05.2019 03:12:48 11,4 C 10,6 C 89,0%
22.05.2019 03:05:50 11,4 C 10,6 C 89,0%
22.05.2019 02:58:48 11,4 C 10,6 C 89,0%
22.05.2019 02:51:47 11,5 C 10,6 C 89,0%
22.05.2019 02:44:48 11,5 C 10,6 C 89,0%
22.05.2019 02:37:46 11,5 C 10,6 C 88,0%
22.05.2019 02:30:45 11,5 C 10,6 C 88,0%
22.05.2019 02:23:48 11,5 C 10,6 C 88,0%
22.05.2019 02:16:46 11,5 C 10,7 C 88,0%
22.05.2019 02:09:48 11,4 C 10,7 C 88,0%
22.05.2019 02:02:48 11,5 C 10,7 C 88,0%
22.05.2019 01:55:45 11,5 C 10,7 C 88,0%
22.05.2019 01:48:45 11,5 C 10,7 C 88,0%
22.05.2019 01:41:47 11,5 C 10,7 C 88,0%
22.05.2019 01:34:48 11,5 C 10,7 C 88,0%
22.05.2019 01:27:48 11,6 C 10,7 C 88,0%
22.05.2019 01:20:33 11,6 C 10,7 C 88,0%
22.05.2019 01:13:31 11,5 C 10,7 C 87,0%
22.05.2019 01:06:32 11,6 C 10,7 C 87,0%
22.05.2019 00:59:32 11,6 C 10,7 C 87,0%
22.05.2019 00:52:32 11,5 C 10,7 C 87,0%
22.05.2019 00:45:34 11,5 C 10,7 C 87,0%
22.05.2019 00:38:33 11,4 C 10,7 C 87,0%
22.05.2019 00:31:33 11,5 C 10,7 C 87,0%
22.05.2019 00:24:31 11,5 C 10,7 C 87,0%
22.05.2019 00:17:32 11,5 C 10,7 C 87,0%
22.05.2019 00:10:33 11,5 C 10,7 C 87,0%
22.05.2019 00:03:33 11,5 C 10,7 C 87,0%